WESTFORD NEEDLES, 18615

Orbit data source: Space-Track

WESTFORD NEEDLES, 18615 is space debris in LEO originally from a launch on Thu, 09 May 1963 UTC launched from the Air Force Western Test Range (AFWTR). Debris objects in space refer to the collection of defunct objects orbiting the Earth. Examples of debris include non-operational satellites, rocket bodies, and fragments generated from explosions, collisions, or faulty payload assembly.

Loading next visibility...
Identifier
18615, 1963-014DK
Orbit
LEO
Country
Flag of USUS
Related business
Manufacturer
Unknown
Mission
Spacecraft
Bus & Motor
Unknown
Mass
Unknown
Launch date (UTC)
1963-05-09 (63 years ago)
Launch vehicle
Unknown
Launch site
Air Force Western Test Range (AFWTR)
Object type
Payload
Rocket body
Debris
Shape & HBR
Unknown shape, 0.2 m
Radar Cross Section
Small (<0.1 m²)

Expand to show TLE details & history
Last TLE update: 5 hours ago

TLE from 5 hours ago
0 WESTFORD NEEDLES
1 18615U 63014DK  26125.44568867  .00000412  00000-0  32339-1 0  9997
2 18615  86.3195 110.5916 1802679 159.3500 357.7605  8.76030427 39387
Epoch: 2026-05-05T10:41Z
TLE epoch observation values (Epoch: 2026-05-05T10:41:47.501Z)
Latitude
23.90138°
Longitude
-94.80231°
Altitude
1,774.18 km
Speed
7.599 km/s
True Right ascension
19h 15m 51s
True Declination
23° 47' 24"
Sunlit
Object was in daylight at epoch
Visualization orbit readout
Latitude
Unknown
Longitude
Unknown
Altitude
Unknown
Speed
Unknown
Apparent Right ascension
Unknown
Apparent Declination
Unknown
Sunlit
N/A
Visualization observer readout
Local Sidereal Time
23:56:52
Azimuth
Unknown
Elevation
Unknown
Doppler factor
Unknown
Orbital elements
Apogee altitude
5,351.092 km
Perigee altitude
1,768.171 km
Semi-major axis
9,937.768 km
Eccentricity
0.18027
Inclination
86.3195°
RAAN
110.5916°
Arg. of periapsis
159.35°
True anomaly
356.72236°
Mean anomaly
357.7605°
Eccentric anomaly
357.26824°
Mean motion
2.19084 °/min
Orbital period
164.32 mins
BSTAR
0.032339
Loading maneuver chart data...
Computing Atmospheric mass density...

Documentation

Showing up to 5 results
|